Location: Bacea
(45.9500°N, 22.6667°E)
Time: 23:52:53
(UTC+00:00)

Feng Yun 1-1 Rocket - Pass Details

Date: 16 October 2021
Orbit: 830 x 933 km, 99.2° (Epoch: 26 November)

Event Time Altitude Azimuth Distance (km) Brightness Sun altitude
Rises 17:02:10 0° 164° (SSE) 3,387 7.2 -14.8°
Reaches altitude 10° 17:04:29 10° 164° (SSE) 2,466 6.4 -15.2°
Maximum altitude 17:09:58 88° 255° (WSW) 871 4.2 -16.1°
Drops below altitude 10° 17:15:39 10° 345° (NNW) 2,549 6.9 -17.1°
Sets 17:18:05 0° 346° (NNW) 3,508 7.7 -17.5°
